| time (UTC) | temp F | wind direction | speed MPH | gust MPH | rain 1hr in | rain 24hr in | rain mn in | humidity % | barometer mb |
| 20260508222529 | 56 | 343 | 1.0 | 13.0 | 0.00 | 0.00 | 0.00 | 50 | 1011.1 |
| 20260508222029 | 56 | 345 | 3.0 | 10.0 | 0.00 | 0.00 | 0.00 | 48 | 1011.2 |
| 20260508221545 | 57 | 322 | 4.0 | 10.0 | 0.00 | 0.00 | 0.00 | 47 | 1011.0 |
| 20260508221032 | 57 | 345 | 1.0 | 13.0 | 0.00 | 0.00 | 0.00 | 49 | 1010.9 |
| 20260508220526 | 56 | 314 | 2.0 | 13.0 | 0.00 | 0.00 | 0.00 | 49 | 1011.1 |
| 20260508220046 | 56 | 341 | 5.0 | 13.0 | 0.00 | 0.00 | 0.00 | 48 | 1011.1 |
| 20260508215528 | 57 | 251 | 4.0 | 6.0 | 0.00 | 0.00 | 0.00 | 49 | 1010.8 |
| 20260508215031 | 57 | 87 | 1.0 | 5.0 | 0.00 | 0.00 | 0.00 | 51 | 1010.8 |
| 20260508214553 | 57 | 319 | 2.0 | 5.0 | 0.00 | 0.00 | 0.00 | 51 | 1010.9 |
| 20260508214029 | 57 | 314 | 1.0 | 5.0 | 0.00 | 0.00 | 0.00 | 50 | 1010.9 |
| 20260508213528 | 56 | 152 | 1.0 | 6.0 | 0.00 | 0.00 | 0.00 | 54 | 1011.1 |
| 20260508213038 | 55 | 122 | 2.0 | 8.0 | 0.00 | 0.00 | 0.00 | 51 | 1011.1 |
| 20260508212529 | 56 | 314 | 3.0 | 8.0 | 0.00 | 0.00 | 0.00 | 50 | 1010.9 |
| 20260508212033 | 57 | 203 | 4.0 | 8.0 | 0.00 | 0.00 | 0.00 | 51 | 1011.0 |
| 20260508211537 | 57 | 319 | 3.0 | 7.0 | 0.00 | 0.00 | 0.00 | 49 | 1011.0 |
| 20260508211030 | 57 | 4 | 3.0 | 8.0 | 0.00 | 0.00 | 0.00 | 49 | 1010.9 |
| 20260508210530 | 57 | 340 | 3.0 | 9.0 | 0.00 | 0.00 | 0.00 | 48 | 1010.8 |
| 20260508210041 | 58 | 350 | 2.0 | 11.0 | 0.00 | 0.00 | 0.00 | 49 | 1010.6 |
| 20260508205528 | 57 | 158 | 2.0 | 11.0 | 0.00 | 0.00 | 0.00 | 47 | 1010.8 |
| 20260508205029 | 57 | 62 | 3.0 | 9.0 | 0.00 | 0.00 | 0.00 | 50 | 1010.7 |
| 20260508204546 | 57 | 161 | 2.0 | 8.0 | 0.00 | 0.00 | 0.00 | 53 | 1010.7 |
| 20260508204035 | 57 | 141 | 1.0 | 8.0 | 0.00 | 0.00 | 0.00 | 52 | 1010.6 |
| 20260508203528 | 56 | 0 | 0.0 | 5.0 | 0.00 | 0.00 | 0.00 | 54 | 1010.8 |
| 20260508203047 | 56 | 225 | 0.0 | 5.0 | 0.00 | 0.00 | 0.00 | 53 | 1010.9 |
| 20260508202529 | 56 | 291 | 1.0 | 6.0 | 0.00 | 0.00 | 0.00 | 56 | 1010.8 |
| 20260508202028 | 55 | 294 | 2.0 | 6.0 | 0.00 | 0.00 | 0.00 | 56 | 1010.9 |
| 20260508201543 | 56 | 353 | 2.0 | 6.0 | 0.00 | 0.00 | 0.00 | 52 | 1010.9 |
| 20260508201031 | 57 | 84 | 1.0 | 6.0 | 0.00 | 0.00 | 0.00 | 54 | 1011.0 |
| 20260508200529 | 57 | 292 | 2.0 | 6.0 | 0.00 | 0.00 | 0.00 | 58 | 1011.1 |
| 20260508200043 | 56 | 175 | 2.0 | 6.0 | 0.00 | 0.00 | 0.00 | 55 | 1010.8 |
| 20260508195529 | 56 | 0 | 2.0 | 6.0 | 0.00 | 0.00 | 0.00 | 55 | 1010.9 |
| 20260508195029 | 56 | 167 | 1.0 | 6.0 | 0.00 | 0.00 | 0.00 | 59 | 1010.9 |
| 20260508194555 | 56 | 105 | 2.0 | 9.0 | 0.00 | 0.00 | 0.00 | 54 | 1011.1 |
| 20260508194028 | 55 | 155 | 2.0 | 9.0 | 0.00 | 0.00 | 0.00 | 60 | 1011.2 |
| 20260508193529 | 55 | 22 | 2.0 | 5.0 | 0.00 | 0.00 | 0.00 | 56 | 1011.2 |
| 20260508193100 | 54 | 279 | 2.0 | 5.0 | 0.00 | 0.00 | 0.00 | 61 | 1011.2 |
| 20260508192529 | 54 | 198 | 1.0 | 6.0 | 0.00 | 0.00 | 0.00 | 56 | 1011.3 |
| 20260508192029 | 53 | 238 | 1.0 | 9.0 | 0.00 | 0.00 | 0.00 | 54 | 1011.2 |
| 20260508191543 | 53 | 276 | 4.0 | 9.0 | 0.00 | 0.00 | 0.00 | 54 | 1011.2 |
| 20260508191028 | 53 | 325 | 2.0 | 7.0 | 0.00 | 0.00 | 0.00 | 54 | 1011.1 |
| 20260508190529 | 54 | 328 | 2.0 | 7.0 | 0.00 | 0.00 | 0.00 | 53 | 1011.2 |
| 20260508190045 | 54 | 162 | 1.0 | 5.0 | 0.00 | 0.00 | 0.00 | 53 | 1011.0 |
| 20260508185529 | 54 | 199 | 2.0 | 8.0 | 0.00 | 0.00 | 0.00 | 52 | 1011.0 |
| 20260508185028 | 54 | 200 | 2.0 | 8.0 | 0.00 | 0.00 | 0.00 | 54 | 1011.0 |
| 20260508184555 | 54 | 181 | 3.0 | 8.0 | 0.00 | 0.00 | 0.00 | 52 | 1010.9 |
| 20260508184029 | 54 | 222 | 2.0 | 7.0 | 0.00 | 0.00 | 0.00 | 52 | 1010.9 |
| 20260508183531 | 54 | 208 | 4.0 | 7.0 | 0.00 | 0.00 | 0.00 | 50 | 1010.8 |
| 20260508183042 | 55 | 302 | 1.0 | 7.0 | 0.00 | 0.00 | 0.00 | 47 | 1010.6 |
| 20260508182529 | 55 | 295 | 1.0 | 7.0 | 0.00 | 0.00 | 0.00 | 47 | 1010.6 |
| 20260508182031 | 55 | 267 | 2.0 | 7.0 | 0.00 | 0.00 | 0.00 | 45 | 1010.7 |
| 20260508181555 | 55 | 285 | 1.0 | 7.0 | 0.00 | 0.00 | 0.00 | 44 | 1010.6 |
| 20260508181029 | 55 | 352 | 2.0 | 7.0 | 0.00 | 0.00 | 0.00 | 43 | 1010.7 |
| 20260508180529 | 55 | 26 | 1.0 | 10.0 | 0.00 | 0.00 | 0.00 | 46 | 1010.6 |
| 20260508180046 | 55 | 0 | 3.0 | 11.0 | 0.00 | 0.00 | 0.00 | 44 | 1010.6 |
| 20260508175529 | 55 | 331 | 4.0 | 16.0 | 0.00 | 0.00 | 0.00 | 45 | 1010.6 |
| 20260508175030 | 55 | 271 | 6.0 | 16.0 | 0.00 | 0.00 | 0.00 | 44 | 1010.6 |
| 20260508174541 | 56 | 294 | 4.0 | 14.0 | 0.00 | 0.00 | 0.00 | 46 | 1010.6 |
| 20260508174028 | 56 | 149 | 6.0 | 14.0 | 0.00 | 0.00 | 0.00 | 44 | 1010.7 |
| 20260508173528 | 56 | 327 | 3.0 | 11.0 | 0.00 | 0.00 | 0.00 | 45 | 1010.6 |
| 20260508173042 | 56 | 3 | 3.0 | 11.0 | 0.00 | 0.00 | 0.00 | 47 | 1010.6 |
| 20260508172529 | 56 | 319 | 3.0 | 9.0 | 0.00 | 0.00 | 0.00 | 45 | 1010.6 |
| 20260508172031 | 56 | 200 | 1.0 | 10.0 | 0.00 | 0.00 | 0.00 | 45 | 1010.4 |
| 20260508171544 | 56 | 0 | 3.0 | 10.0 | 0.00 | 0.00 | 0.00 | 43 | 1010.3 |
| 20260508171029 | 56 | 259 | 2.0 | 8.0 | 0.00 | 0.00 | 0.00 | 45 | 1010.3 |
| 20260508170528 | 56 | 19 | 4.0 | 8.0 | 0.00 | 0.00 | 0.00 | 42 | 1010.1 |
| 20260508170041 | 56 | 293 | 2.0 | 7.0 | 0.00 | 0.00 | 0.00 | 43 | 1010.2 |
| 20260508165529 | 56 | 25 | 0.0 | 6.0 | 0.00 | 0.00 | 0.00 | 46 | 1010.2 |
| 20260508165029 | 56 | 276 | 2.0 | 9.0 | 0.00 | 0.00 | 0.00 | 44 | 1010.1 |
| 20260508164546 | 57 | 330 | 3.0 | 9.0 | 0.00 | 0.00 | 0.00 | 43 | 1010.1 |
| 20260508164031 | 57 | 260 | 4.0 | 9.0 | 0.00 | 0.00 | 0.00 | 42 | 1010.1 |
| 20260508163528 | 58 | 124 | 2.0 | 11.0 | 0.00 | 0.00 | 0.00 | 45 | 1010.2 |
| 20260508163047 | 58 | 340 | 4.0 | 11.0 | 0.00 | 0.00 | 0.00 | 51 | 1010.4 |
| 20260508162529 | 58 | 273 | 1.0 | 7.0 | 0.00 | 0.00 | 0.00 | 47 | 1010.3 |
| 20260508162028 | 58 | 236 | 1.0 | 7.0 | 0.00 | 0.00 | 0.00 | 45 | 1010.3 |
| 20260508161608 | 58 | 144 | 3.0 | 7.0 | 0.00 | 0.00 | 0.00 | 45 | 1010.2 |
| 20260508161030 | 58 | 295 | 2.0 | 7.0 | 0.00 | 0.00 | 0.00 | 45 | 1010.4 |
| 20260508160528 | 58 | 169 | 2.0 | 6.0 | 0.00 | 0.00 | 0.00 | 43 | 1010.4 |
| 20260508160059 | 57 | 271 | 3.0 | 7.0 | 0.00 | 0.00 | 0.00 | 51 | 1010.4 |
| 20260508155529 | 57 | 316 | 2.0 | 7.0 | 0.00 | 0.00 | 0.00 | 49 | 1010.6 |
| 20260508155029 | 57 | 170 | 2.0 | 8.0 | 0.00 | 0.00 | 0.00 | 47 | 1010.7 |
| 20260508154543 | 56 | 217 | 3.0 | 8.0 | 0.00 | 0.00 | 0.00 | 49 | 1010.7 |
| 20260508154030 | 56 | 286 | 3.0 | 8.0 | 0.00 | 0.00 | 0.00 | 51 | 1010.8 |
| 20260508153530 | 56 | 226 | 3.0 | 7.0 | 0.00 | 0.00 | 0.00 | 51 | 1011.0 |
| 20260508153045 | 55 | 136 | 2.0 | 6.0 | 0.00 | 0.00 | 0.00 | 51 | 1011.0 |
| 20260508152528 | 54 | 257 | 2.0 | 5.0 | 0.00 | 0.00 | 0.00 | 54 | 1011.1 |
| 20260508152029 | 54 | 147 | 1.0 | 9.0 | 0.00 | 0.00 | 0.00 | 52 | 1011.2 |
| 20260508151538 | 54 | 127 | 3.0 | 9.0 | 0.00 | 0.00 | 0.00 | 51 | 1011.1 |
| 20260508151030 | 54 | 307 | 4.0 | 7.0 | 0.00 | 0.00 | 0.00 | 55 | 1011.2 |
| 20260508150529 | 53 | 52 | 2.0 | 7.0 | 0.00 | 0.00 | 0.00 | 56 | 1011.2 |
| 20260508150042 | 54 | 27 | 0.0 | 8.0 | 0.00 | 0.00 | 0.00 | 53 | 1011.2 |
| 20260508145530 | 54 | 339 | 2.0 | 8.0 | 0.00 | 0.00 | 0.00 | 56 | 1011.2 |
| 20260508145034 | 53 | 307 | 2.0 | 5.0 | 0.00 | 0.00 | 0.00 | 54 | 1011.1 |
| 20260508144540 | 53 | 295 | 2.0 | 7.0 | 0.00 | 0.00 | 0.00 | 53 | 1011.3 |
| 20260508144029 | 53 | 333 | 3.0 | 12.0 | 0.00 | 0.00 | 0.00 | 57 | 1011.1 |
| 20260508143528 | 53 | 352 | 5.0 | 12.0 | 0.00 | 0.00 | 0.00 | 58 | 1011.2 |
| 20260508143055 | 53 | 322 | 6.0 | 12.0 | 0.00 | 0.00 | 0.00 | 55 | 1011.3 |
| 20260508142529 | 53 | 315 | 2.0 | 6.0 | 0.00 | 0.00 | 0.00 | 57 | 1011.4 |
| 20260508142029 | 52 | 360 | 3.0 | 9.0 | 0.00 | 0.00 | 0.00 | 58 | 1011.3 |
| 20260508141548 | 52 | 60 | 1.0 | 9.0 | 0.00 | 0.00 | 0.00 | 56 | 1011.4 |
| 20260508141028 | 53 | 4 | 3.0 | 9.0 | 0.00 | 0.00 | 0.00 | 56 | 1011.4 |
| 20260508140529 | 52 | 344 | 2.0 | 8.0 | 0.00 | 0.00 | 0.00 | 58 | 1011.4 |
| 20260508140041 | 52 | 0 | 1.0 | 8.0 | 0.00 | 0.00 | 0.00 | 57 | 1011.4 |
| 20260508135528 | 51 | 25 | 5.0 | 13.0 | 0.00 | 0.00 | 0.00 | 58 | 1011.4 |
| 20260508135029 | 51 | 267 | 5.0 | 13.0 | 0.00 | 0.00 | 0.00 | 58 | 1011.5 |
| 20260508134545 | 52 | 298 | 4.0 | 8.0 | 0.00 | 0.00 | 0.00 | 56 | 1011.6 |
| 20260508134028 | 52 | 189 | 2.0 | 11.0 | 0.00 | 0.00 | 0.00 | 56 | 1011.5 |
| 20260508133529 | 52 | 310 | 3.0 | 11.0 | 0.00 | 0.00 | 0.00 | 55 | 1011.6 |
| 20260508133053 | 52 | 13 | 4.0 | 10.0 | 0.00 | 0.00 | 0.00 | 56 | 1011.7 |
| 20260508132528 | 52 | 266 | 3.0 | 10.0 | 0.00 | 0.00 | 0.00 | 56 | 1011.7 |
| 20260508132031 | 52 | 299 | 5.0 | 9.0 | 0.00 | 0.00 | 0.00 | 56 | 1011.9 |
| 20260508131542 | 52 | 342 | 2.0 | 9.0 | 0.00 | 0.00 | 0.00 | 57 | 1011.9 |
| 20260508131029 | 51 | 333 | 3.0 | 9.0 | 0.00 | 0.00 | 0.00 | 56 | 1012.0 |
| 20260508130528 | 51 | 264 | 4.0 | 13.0 | 0.00 | 0.00 | 0.00 | 57 | 1012.2 |
| 20260508130045 | 50 | 349 | 4.0 | 13.0 | 0.00 | 0.00 | 0.00 | 56 | 1011.9 |
| 20260508125532 | 50 | 343 | 6.0 | 13.0 | 0.00 | 0.00 | 0.00 | 58 | 1012.1 |
| 20260508125028 | 50 | 304 | 3.0 | 10.0 | 0.00 | 0.00 | 0.00 | 57 | 1011.8 |
| 20260508124539 | 50 | 294 | 2.0 | 8.0 | 0.00 | 0.00 | 0.00 | 59 | 1011.8 |
| 20260508124028 | 49 | 326 | 3.0 | 8.0 | 0.00 | 0.00 | 0.00 | 58 | 1011.8 |
| 20260508123529 | 49 | 15 | 4.0 | 8.0 | 0.00 | 0.00 | 0.00 | 59 | 1011.8 |
| 20260508123044 | 48 | 288 | 2.0 | 11.0 | 0.00 | 0.00 | 0.00 | 60 | 1011.8 |
| 20260508122528 | 47 | 212 | 1.0 | 11.0 | 0.00 | 0.00 | 0.00 | 61 | 1011.8 |
| 20260508122028 | 47 | 321 | 4.0 | 11.0 | 0.00 | 0.00 | 0.00 | 61 | 1011.7 |
| 20260508121559 | 47 | 293 | 3.0 | 7.0 | 0.00 | 0.00 | 0.00 | 61 | 1011.8 |
| 20260508121029 | 47 | 307 | 2.0 | 13.0 | 0.00 | 0.00 | 0.00 | 59 | 1011.6 |
| 20260508120528 | 47 | 116 | 3.0 | 16.0 | 0.00 | 0.00 | 0.00 | 59 | 1011.6 |
| 20260508120043 | 47 | 315 | 5.0 | 16.0 | 0.00 | 0.00 | 0.00 | 58 | 1011.6 |
| 20260508115527 | 46 | 358 | 4.0 | 10.0 | 0.00 | 0.00 | 0.00 | 60 | 1011.5 |
| 20260508115028 | 46 | 262 | 3.0 | 10.0 | 0.00 | 0.00 | 0.00 | 62 | 1011.6 |
| 20260508114539 | 45 | 27 | 2.0 | 7.0 | 0.00 | 0.00 | 0.00 | 60 | 1011.5 |
| 20260508114029 | 45 | 65 | 3.0 | 8.0 | 0.00 | 0.00 | 0.00 | 61 | 1011.4 |
| 20260508113529 | 45 | 313 | 2.0 | 8.0 | 0.00 | 0.00 | 0.00 | 60 | 1011.4 |
| 20260508113035 | 45 | 314 | 2.0 | 8.0 | 0.00 | 0.00 | 0.00 | 62 | 1011.4 |
| 20260508112528 | 45 | 259 | 1.0 | 7.0 | 0.00 | 0.00 | 0.00 | 62 | 1011.5 |
| 20260508112029 | 44 | 36 | 2.0 | 4.0 | 0.00 | 0.00 | 0.00 | 63 | 1011.4 |
| 20260508111541 | 44 | 39 | 1.0 | 4.0 | 0.00 | 0.00 | 0.00 | 67 | 1011.4 |
| 20260508111030 | 43 | 351 | 1.0 | 4.0 | 0.00 | 0.00 | 0.00 | 69 | 1011.5 |
| 20260508110529 | 42 | 89 | 0.0 | 1.0 | 0.00 | 0.00 | 0.00 | 73 | 1011.5 |
| 20260508110051 | 40 | 139 | 0.0 | 2.0 | 0.00 | 0.00 | 0.00 | 74 | 1011.3 |
| 20260508105528 | 39 | 0 | 0.0 | 2.0 | 0.00 | 0.00 | 0.00 | 77 | 1011.2 |
| 20260508105029 | 38 | 131 | 0.0 | 1.0 | 0.00 | 0.00 | 0.00 | 80 | 1011.3 |
| 20260508104542 | 37 | 0 | 0.0 | 0.0 | 0.00 | 0.00 | 0.00 | 84 | 1011.3 |
| 20260508104028 | 36 | 0 | 0.0 | 0.0 | 0.00 | 0.00 | 0.00 | 87 | 1011.2 |
| 20260508103528 | 36 | 0 | 0.0 | 0.0 | 0.00 | 0.00 | 0.00 | 90 | 1011.3 |
| 20260508103037 | 35 | 0 | 0.0 | 0.0 | 0.00 | 0.00 | 0.00 | 91 | 1011.3 |
| 20260508102528 | 34 | 0 | 0.0 | 0.0 | 0.00 | 0.00 | 0.00 | 91 | 1011.3 |
| 20260508102029 | 33 | 0 | 0.0 | 0.0 | 0.00 | 0.00 | 0.00 | 90 | 1011.3 |
| 20260508101538 | 33 | 0 | 0.0 | 0.0 | 0.00 | 0.00 | 0.00 | 89 | 1011.2 |
| 20260508101032 | 33 | 0 | 0.0 | 0.0 | 0.00 | 0.00 | 0.00 | 89 | 1011.1 |
| 20260508100529 | 33 | 0 | 0.0 | 0.0 | 0.00 | 0.00 | 0.00 | 88 | 1011.1 |
| 20260508100045 | 33 | 0 | 0.0 | 0.0 | 0.00 | 0.00 | 0.00 | 88 | 1011.1 |
| 20260508095531 | 34 | 0 | 0.0 | 0.0 | 0.00 | 0.00 | 0.00 | 88 | 1010.8 |
| 20260508095030 | 34 | 0 | 0.0 | 0.0 | 0.00 | 0.00 | 0.00 | 88 | 1010.8 |
| 20260508094547 | 34 | 0 | 0.0 | 0.0 | 0.00 | 0.00 | 0.00 | 88 | 1010.8 |
| 20260508094029 | 35 | 0 | 0.0 | 0.0 | 0.00 | 0.00 | 0.00 | 88 | 1010.6 |
| 20260508093528 | 35 | 0 | 0.0 | 0.0 | 0.00 | 0.00 | 0.00 | 88 | 1010.5 |
| 20260508093040 | 35 | 0 | 0.0 | 0.0 | 0.00 | 0.00 | 0.00 | 88 | 1010.4 |
| 20260508092528 | 36 | 0 | 0.0 | 0.0 | 0.00 | 0.00 | 0.00 | 87 | 1010.4 |
| 20260508092028 | 36 | 0 | 0.0 | 0.0 | 0.00 | 0.00 | 0.00 | 88 | 1010.4 |
| 20260508091541 | 36 | 0 | 0.0 | 0.0 | 0.00 | 0.00 | 0.00 | 87 | 1010.3 |
| 20260508091028 | 37 | 0 | 0.0 | 0.0 | 0.00 | 0.00 | 0.00 | 87 | 1010.2 |
| 20260508090529 | 37 | 0 | 0.0 | 1.0 | 0.00 | 0.00 | 0.00 | 87 | 1010.2 |
| 20260508090038 | 37 | 0 | 0.0 | 1.0 | 0.00 | 0.00 | 0.00 | 88 | 1010.3 |
| 20260508085527 | 37 | 224 | 0.0 | 0.0 | 0.00 | 0.00 | 0.00 | 88 | 1010.2 |
| 20260508085031 | 37 | 0 | 0.0 | 0.0 | 0.00 | 0.00 | 0.00 | 87 | 1010.0 |
| 20260508084543 | 36 | 0 | 0.0 | 0.0 | 0.00 | 0.00 | 0.00 | 87 | 1010.2 |
| 20260508084033 | 37 | 0 | 0.0 | 0.0 | 0.00 | 0.00 | 0.00 | 86 | 1010.3 |
| 20260508083528 | 37 | 0 | 0.0 | 0.0 | 0.00 | 0.00 | 0.00 | 86 | 1010.2 |
| 20260508083119 | 37 | 0 | 0.0 | 1.0 | 0.00 | 0.00 | 0.00 | 86 | 1010.1 |
| 20260508082528 | 37 | 0 | 0.0 | 1.0 | 0.00 | 0.00 | 0.00 | 86 | 1010.2 |
| 20260508082028 | 36 | 200 | 0.0 | 0.0 | 0.00 | 0.00 | 0.00 | 86 | 1010.4 |
| 20260508081552 | 36 | 199 | 0.0 | 0.0 | 0.00 | 0.00 | 0.00 | 85 | 1010.4 |
| 20260508081028 | 36 | 0 | 0.0 | 0.0 | 0.00 | 0.00 | 0.00 | 86 | 1010.4 |
| 20260508080528 | 36 | 0 | 0.0 | 0.0 | 0.00 | 0.00 | 0.00 | 84 | 1010.2 |
| 20260508080035 | 35 | 0 | 0.0 | 0.0 | 0.00 | 0.00 | 0.00 | 86 | 1010.2 |
| 20260508075528 | 35 | 0 | 0.0 | 0.0 | 0.00 | 0.00 | 0.00 | 87 | 1010.2 |
| 20260508075028 | 35 | 0 | 0.0 | 2.0 | 0.00 | 0.00 | 0.00 | 87 | 1010.1 |
| 20260508074539 | 35 | 0 | 0.0 | 2.0 | 0.00 | 0.00 | 0.00 | 88 | 1010.0 |
| 20260508074028 | 34 | 0 | 0.0 | 1.0 | 0.00 | 0.00 | 0.00 | 89 | 1010.0 |
| 20260508073529 | 34 | 0 | 0.0 | 0.0 | 0.00 | 0.00 | 0.00 | 88 | 1010.0 |
| 20260508073041 | 34 | 0 | 0.0 | 0.0 | 0.00 | 0.00 | 0.00 | 88 | 1010.0 |
| 20260508072528 | 34 | 0 | 0.0 | 0.0 | 0.00 | 0.00 | 0.00 | 88 | 1010.0 |
| 20260508072028 | 34 | 0 | 0.0 | 0.0 | 0.00 | 0.00 | 0.00 | 87 | 1010.0 |
| 20260508071544 | 34 | 0 | 0.0 | 0.0 | 0.00 | 0.00 | 0.00 | 87 | 1010.0 |
| 20260508071028 | 34 | 0 | 0.0 | 0.0 | 0.00 | 0.00 | 0.00 | 86 | 1009.9 |
| 20260508070531 | 34 | 0 | 0.0 | 0.0 | 0.00 | 0.00 | 0.00 | 86 | 1009.9 |
| 20260508070044 | 34 | 0 | 0.0 | 0.0 | 0.00 | 0.00 | 0.00 | 86 | 1009.9 |
| 20260508065525 | 34 | 0 | 0.0 | 0.0 | 0.00 | 0.00 | 0.00 | 86 | 1009.9 |
| 20260508065027 | 34 | 0 | 0.0 | 0.0 | 0.00 | 0.00 | 0.00 | 86 | 1009.8 |
| 20260508064601 | 34 | 0 | 0.0 | 0.0 | 0.00 | 0.00 | 0.00 | 85 | 1009.7 |
| 20260508064028 | 34 | 0 | 0.0 | 0.0 | 0.00 | 0.00 | 0.00 | 86 | 1009.6 |
| 20260508063528 | 34 | 0 | 0.0 | 0.0 | 0.00 | 0.00 | 0.00 | 84 | 1009.7 |
| 20260508063045 | 34 | 0 | 0.0 | 0.0 | 0.00 | 0.00 | 0.00 | 84 | 1009.6 |
| 20260508062524 | 35 | 0 | 0.0 | 0.0 | 0.00 | 0.00 | 0.00 | 83 | 1009.5 |
| 20260508062028 | 35 | 0 | 0.0 | 0.0 | 0.00 | 0.00 | 0.00 | 83 | 1009.5 |
| 20260508061543 | 35 | 0 | 0.0 | 0.0 | 0.00 | 0.00 | 0.00 | 84 | 1009.5 |
| 20260508061031 | 36 | 0 | 0.0 | 0.0 | 0.00 | 0.00 | 0.00 | 82 | 1009.5 |
| 20260508060529 | 36 | 0 | 0.0 | 0.0 | 0.00 | 0.00 | 0.00 | 82 | 1009.4 |
| 20260508060045 | 36 | 0 | 0.0 | 1.0 | 0.00 | 0.00 | 0.00 | 82 | 1009.4 |
| 20260508055528 | 37 | 0 | 0.0 | 1.0 | 0.00 | 0.00 | 0.00 | 81 | 1009.5 |
| 20260508055029 | 36 | 283 | 0.0 | 1.0 | 0.00 | 0.00 | 0.00 | 82 | 1009.3 |
| 20260508054540 | 36 | 0 | 0.0 | 1.0 | 0.00 | 0.00 | 0.00 | 81 | 1009.2 |
| 20260508054025 | 36 | 283 | 0.0 | 1.0 | 0.00 | 0.00 | 0.00 | 82 | 1009.3 |
| 20260508053526 | 36 | 0 | 0.0 | 2.0 | 0.00 | 0.00 | 0.00 | 82 | 1009.4 |
| 20260508053035 | 37 | 332 | 0.0 | 2.0 | 0.00 | 0.00 | 0.00 | 82 | 1009.4 |
| 20260508052527 | 37 | 321 | 0.0 | 1.0 | 0.00 | 0.00 | 0.00 | 81 | 1009.6 |
| 20260508052025 | 37 | 0 | 0.0 | 1.0 | 0.00 | 0.00 | 0.00 | 80 | 1009.6 |
| 20260508051538 | 38 | 0 | 0.0 | 1.0 | 0.00 | 0.00 | 0.00 | 79 | 1009.7 |
| 20260508051028 | 38 | 0 | 0.0 | 1.0 | 0.00 | 0.00 | 0.00 | 79 | 1009.7 |
| 20260508050529 | 38 | 295 | 0.0 | 1.0 | 0.00 | 0.00 | 0.00 | 78 | 1009.8 |
| 20260508050048 | 38 | 0 | 0.0 | 1.0 | 0.00 | 0.00 | 0.00 | 80 | 1009.9 |
| 20260508045528 | 38 | 0 | 0.0 | 1.0 | 0.00 | 0.00 | 0.00 | 80 | 1009.8 |
| 20260508045028 | 38 | 0 | 0.0 | 1.0 | 0.00 | 0.00 | 0.00 | 80 | 1009.8 |
| 20260508044543 | 38 | 0 | 0.0 | 1.0 | 0.00 | 0.00 | 0.00 | 79 | 1009.6 |
| 20260508044031 | 38 | 284 | 0.0 | 1.0 | 0.00 | 0.00 | 0.00 | 78 | 1009.6 |
| 20260508043533 | 38 | 0 | 0.0 | 1.0 | 0.00 | 0.00 | 0.00 | 78 | 1009.6 |
| 20260508043041 | 38 | 0 | 0.0 | 1.0 | 0.00 | 0.00 | 0.00 | 78 | 1009.8 |
| 20260508042529 | 38 | 0 | 0.0 | 0.0 | 0.00 | 0.00 | 0.00 | 78 | 1009.7 |
| 20260508042030 | 38 | 0 | 0.0 | 0.0 | 0.00 | 0.00 | 0.00 | 78 | 1009.9 |
| 20260508041548 | 38 | 0 | 0.0 | 1.0 | 0.00 | 0.00 | 0.00 | 78 | 1010.0 |
| 20260508041030 | 38 | 0 | 0.0 | 1.0 | 0.00 | 0.00 | 0.00 | 78 | 1010.0 |
| 20260508040529 | 38 | 300 | 0.0 | 1.0 | 0.00 | 0.00 | 0.00 | 79 | 1010.0 |
| 20260508040048 | 38 | 0 | 0.0 | 0.0 | 0.00 | 0.00 | 0.00 | 79 | 1010.2 |
| 20260508035531 | 39 | 0 | 0.0 | 0.0 | 0.00 | 0.00 | 0.00 | 79 | 1010.1 |
| 20260508035032 | 39 | 0 | 0.0 | 0.0 | 0.00 | 0.00 | 0.00 | 79 | 1010.0 |
| 20260508034544 | 39 | 0 | 0.0 | 0.0 | 0.00 | 0.00 | 0.00 | 78 | 1010.0 |
| 20260508034031 | 39 | 0 | 0.0 | 0.0 | 0.00 | 0.00 | 0.00 | 77 | 1010.0 |
| 20260508033531 | 40 | 0 | 0.0 | 0.0 | 0.00 | 0.00 | 0.00 | 76 | 1010.0 |
| 20260508033045 | 40 | 0 | 0.0 | 0.0 | 0.00 | 0.00 | 0.00 | 75 | 1010.0 |
| 20260508032531 | 40 | 0 | 0.0 | 0.0 | 0.00 | 0.00 | 0.00 | 74 | 1010.1 |
| 20260508032031 | 40 | 0 | 0.0 | 0.0 | 0.00 | 0.00 | 0.00 | 74 | 1010.0 |
| 20260508031541 | 41 | 0 | 0.0 | 0.0 | 0.00 | 0.00 | 0.00 | 73 | 1010.1 |
| 20260508031030 | 41 | 0 | 0.0 | 0.0 | 0.00 | 0.00 | 0.00 | 73 | 1010.1 |
| 20260508030530 | 41 | 0 | 0.0 | 0.0 | 0.00 | 0.00 | 0.00 | 73 | 1010.1 |
| 20260508030037 | 42 | 0 | 0.0 | 0.0 | 0.00 | 0.00 | 0.00 | 73 | 1010.2 |
| 20260508025530 | 42 | 0 | 0.0 | 0.0 | 0.00 | 0.00 | 0.00 | 75 | 1010.0 |
| 20260508025033 | 42 | 0 | 0.0 | 0.0 | 0.00 | 0.00 | 0.00 | 75 | 1010.0 |
| 20260508024541 | 43 | 0 | 0.0 | 0.0 | 0.00 | 0.00 | 0.00 | 73 | 1009.9 |
| 20260508024030 | 43 | 0 | 0.0 | 0.0 | 0.00 | 0.00 | 0.00 | 72 | 1010.0 |
| 20260508023530 | 42 | 0 | 0.0 | 0.0 | 0.00 | 0.00 | 0.00 | 71 | 1010.0 |
| 20260508023042 | 43 | 0 | 0.0 | 0.0 | 0.00 | 0.00 | 0.00 | 71 | 1010.0 |
| 20260508022529 | 43 | 0 | 0.0 | 0.0 | 0.00 | 0.00 | 0.00 | 71 | 1009.9 |
| 20260508022031 | 43 | 0 | 0.0 | 0.0 | 0.00 | 0.00 | 0.00 | 70 | 1009.9 |
| 20260508021541 | 43 | 0 | 0.0 | 0.0 | 0.00 | 0.00 | 0.00 | 70 | 1009.8 |
| 20260508021032 | 44 | 0 | 0.0 | 0.0 | 0.00 | 0.00 | 0.00 | 70 | 1009.8 |
| 20260508020529 | 44 | 0 | 0.0 | 1.0 | 0.00 | 0.00 | 0.00 | 67 | 1009.8 |
| 20260508020047 | 44 | 0 | 0.0 | 1.0 | 0.00 | 0.00 | 0.00 | 65 | 1009.6 |
| 20260508015530 | 44 | 0 | 0.0 | 0.0 | 0.00 | 0.01 | 0.00 | 64 | 1009.9 |
| 20260508015030 | 44 | 0 | 0.0 | 0.0 | 0.00 | 0.01 | 0.00 | 63 | 1009.8 |
| 20260508014542 | 45 | 0 | 0.0 | 0.0 | 0.00 | 0.01 | 0.00 | 64 | 1009.8 |
| 20260508014030 | 45 | 0 | 0.0 | 0.0 | 0.00 | 0.01 | 0.00 | 62 | 1009.9 |
| 20260508013530 | 45 | 0 | 0.0 | 0.0 | 0.00 | 0.01 | 0.00 | 62 | 1009.9 |
| 20260508013041 | 46 | 0 | 0.0 | 0.0 | 0.00 | 0.01 | 0.00 | 61 | 1010.0 |
| 20260508012530 | 46 | 0 | 0.0 | 1.0 | 0.00 | 0.01 | 0.00 | 60 | 1009.8 |
| 20260508012028 | 47 | 0 | 0.0 | 1.0 | 0.00 | 0.01 | 0.00 | 57 | 1009.6 |
| 20260508011549 | 47 | 0 | 0.0 | 1.0 | 0.00 | 0.01 | 0.00 | 55 | 1009.6 |
| 20260508011028 | 47 | 0 | 0.0 | 1.0 | 0.00 | 0.01 | 0.00 | 56 | 1009.5 |
| 20260508010525 | 48 | 0 | 0.0 | 1.0 | 0.00 | 0.01 | 0.00 | 56 | 1009.6 |
| 20260508010056 | 48 | 0 | 0.0 | 1.0 | 0.00 | 0.01 | 0.00 | 54 | 1009.3 |
| 20260508005532 | 48 | 0 | 0.0 | 1.0 | 0.00 | 0.06 | 0.00 | 52 | 1009.2 |
| 20260508005025 | 49 | 0 | 0.0 | 1.0 | 0.00 | 0.06 | 0.00 | 51 | 1009.2 |
| 20260508004555 | 50 | 0 | 0.0 | 3.0 | 0.00 | 0.06 | 0.00 | 48 | 1009.1 |
| 20260508004030 | 50 | 0 | 0.0 | 3.0 | 0.00 | 0.06 | 0.00 | 46 | 1009.1 |
| 20260508003524 | 51 | 0 | 0.0 | 6.0 | 0.00 | 0.06 | 0.00 | 45 | 1009.0 |
| 20260508003045 | 51 | 289 | 1.0 | 6.0 | 0.00 | 0.06 | 0.00 | 46 | 1008.9 |
| 20260508002525 | 51 | 21 | 1.0 | 6.0 | 0.00 | 0.06 | 0.00 | 45 | 1008.9 |
| 20260508002029 | 51 | 11 | 0.0 | 4.0 | 0.00 | 0.06 | 0.00 | 45 | 1008.8 |
| 20260508001545 | 51 | 0 | 1.0 | 4.0 | 0.00 | 0.06 | 0.00 | 44 | 1008.9 |
| 20260508001028 | 52 | 0 | 0.0 | 2.0 | 0.00 | 0.06 | 0.00 | 44 | 1008.8 |
| 20260508000533 | 52 | 0 | 0.0 | 4.0 | 0.00 | 0.06 | 0.00 | 42 | 1008.8 |
| 20260508000040 | 53 | 338 | 1.0 | 6.0 | 0.00 | 0.06 | 0.00 | 42 | 1008.9 |
| 20260507235527 | 53 | 301 | 1.0 | 6.0 | 0.00 | 0.06 | 0.00 | 42 | 1008.7 |
| 20260507235029 | 53 | 293 | 1.0 | 6.0 | 0.00 | 0.06 | 0.00 | 42 | 1008.7 |
| 20260507234535 | 53 | 266 | 2.0 | 6.0 | 0.00 | 0.06 | 0.00 | 40 | 1008.8 |
| 20260507234025 | 54 | 336 | 2.0 | 7.0 | 0.00 | 0.06 | 0.00 | 39 | 1008.6 |
| 20260507233528 | 54 | 44 | 3.0 | 8.0 | 0.00 | 0.06 | 0.00 | 39 | 1008.5 |
| 20260507233044 | 54 | 347 | 3.0 | 8.0 | 0.00 | 0.06 | 0.00 | 38 | 1008.5 |
| 20260507232525 | 54 | 309 | 2.0 | 8.0 | 0.00 | 0.06 | 0.00 | 38 | 1008.5 |
| 20260507232024 | 55 | 302 | 3.0 | 8.0 | 0.00 | 0.06 | 0.00 | 38 | 1008.5 |
| 20260507231540 | 55 | 343 | 2.0 | 8.0 | 0.00 | 0.06 | 0.00 | 38 | 1008.5 |
| 20260507231027 | 55 | 236 | 2.0 | 8.0 | 0.00 | 0.06 | 0.00 | 39 | 1008.5 |
| 20260507230530 | 55 | 253 | 1.0 | 8.0 | 0.00 | 0.06 | 0.00 | 38 | 1008.4 |
| 20260507230044 | 56 | 292 | 4.0 | 11.0 | 0.00 | 0.06 | 0.00 | 37 | 1008.5 |
| 20260507225525 | 56 | 285 | 4.0 | 12.0 | 0.00 | 0.07 | 0.00 | 36 | 1008.3 |
| 20260507225027 | 56 | 5 | 5.0 | 15.0 | 0.00 | 0.07 | 0.00 | 36 | 1008.3 |
| 20260507224557 | 57 | 341 | 6.0 | 18.0 | 0.00 | 0.07 | 0.00 | 36 | 1008.3 |
| 20260507224026 | 57 | 265 | 6.0 | 18.0 | 0.00 | 0.07 | 0.00 | 36 | 1008.5 |
| 20260507223528 | 57 | 342 | 3.0 | 12.0 | 0.00 | 0.07 | 0.00 | 36 | 1008.3 |
| 20260507223040 | 57 | 345 | 5.0 | 11.0 | 0.00 | 0.07 | 0.00 | 37 | 1008.3 |